Time,TemperatureF,DewpointF,PressureIn,WindDirection,WindDirectionDegrees,WindSpeedMPH,WindSpeedGustMPH,Humidity,HourlyPrecipIn,Conditions,Clouds,dailyrainin,SoftwareType,DateUTC
2013-02-19 00:00:00,39.3,39.3,30.25,SSW,209,1.0,12.0,100,0.00,,,0.00,WeatherDisplay:10.37,2013-02-19 05:00:00,
2013-02-19 00:23:00,38.5,38.5,30.24,SSW,201,1.0,7.0,100,0.00,,,0.00,WeatherDisplay:10.37,2013-02-19 05:23:00,
2013-02-19 01:00:00,37.3,37.3,30.22,SSW,200,0.0,12.0,100,0.00,,,0.00,WeatherDisplay:10.37,2013-02-19 06:00:00,
2013-02-19 02:00:00,35.0,35.0,30.21,South,179,0.0,4.0,100,0.00,,,0.00,WeatherDisplay:10.37,2013-02-19 07:00:00,
2013-02-19 03:00:00,34.2,34.2,30.18,SSE,160,0.0,4.0,100,0.00,,,0.00,WeatherDisplay:10.37,2013-02-19 08:00:00,
2013-02-19 04:00:00,34.0,34.0,30.15,SSW,192,0.0,4.0,100,0.00,,,0.00,WeatherDisplay:10.37,2013-02-19 09:00:00,
2013-02-19 05:00:00,35.5,35.5,30.14,South,185,0.0,7.0,100,0.00,,,0.00,WeatherDisplay:10.37,2013-02-19 10:00:00,
2013-02-19 06:00:00,35.1,35.1,30.13,SSW,209,0.0,5.0,100,0.00,,,0.00,WeatherDisplay:10.37,2013-02-19 11:00:00,
2013-02-19 07:00:00,36.5,36.5,30.10,South,190,0.0,7.0,100,0.00,,,0.00,WeatherDisplay:10.37,2013-02-19 12:00:00,
2013-02-19 08:00:00,39.4,39.4,30.10,South,182,0.0,7.0,100,0.00,,,0.00,WeatherDisplay:10.37,2013-02-19 13:00:00,
2013-02-19 09:00:00,44.7,44.7,30.08,SSW,193,1.0,9.0,100,0.00,,,0.00,WeatherDisplay:10.37,2013-02-19 14:00:00,
2013-02-19 10:00:00,46.5,46.5,30.06,South,173,1.0,10.0,100,0.00,CLR,,0.00,WeatherDisplay:10.37,2013-02-19 15:00:00,
2013-02-19 11:00:00,47.4,47.4,30.03,SSW,211,3.0,12.0,100,0.02,,,0.02,WeatherDisplay:10.37,2013-02-19 16:00:00,
2013-02-19 12:00:00,49.0,49.0,29.99,SW,217,6.0,20.0,100,0.02,,,0.04,WeatherDisplay:10.37,2013-02-19 17:00:00,
2013-02-19 13:00:00,51.6,51.6,29.93,SSW,205,3.0,20.0,100,0.00,CLR,,0.04,WeatherDisplay:10.37,2013-02-19 18:00:00,
2013-02-19 14:00:00,52.2,52.2,29.88,SSW,211,7.0,22.0,100,0.00,CLR,,0.04,WeatherDisplay:10.37,2013-02-19 19:00:00,
2013-02-19 15:00:00,51.7,51.7,29.87,SW,218,2.0,14.0,100,0.06,RA,,0.10,WeatherDisplay:10.37,2013-02-19 20:00:00,
2013-02-19 16:00:00,51.3,51.3,29.86,SW,227,7.0,18.0,100,0.00,CLR,,0.10,WeatherDisplay:10.37,2013-02-19 21:00:00,
2013-02-19 17:00:00,50.5,50.5,29.85,WSW,242,3.0,20.0,100,0.00,CLR,,0.10,WeatherDisplay:10.37,2013-02-19 22:00:00,
2013-02-19 18:00:00,49.7,49.7,29.88,West,264,6.0,14.0,100,0.00,CLR,,0.10,WeatherDisplay:10.37,2013-02-19 23:00:00,
2013-02-19 19:00:00,47.7,47.7,29.90,WSW,246,1.0,12.0,100,0.00,CLR,,0.10,WeatherDisplay:10.37,2013-02-20 00:00:00,
2013-02-19 20:00:00,45.8,45.8,29.92,WSW,252,2.0,9.0,100,0.00,,,0.10,WeatherDisplay:10.37,2013-02-20 01:00:00,
2013-02-19 21:00:00,44.6,44.6,29.93,WSW,255,1.0,12.0,100,0.00,,,0.10,WeatherDisplay:10.37,2013-02-20 02:00:00,
2013-02-19 22:00:00,43.0,43.0,29.93,WSW,250,3.0,7.0,100,0.00,,,0.10,WeatherDisplay:10.37,2013-02-20 03:00:00,
2013-02-19 23:00:00,41.3,41.3,29.93,West,265,1.0,7.0,100,0.00,,,0.10,WeatherDisplay:10.37,2013-02-20 04:00:00,